FW5354 Weather Reports


time (UTC)temp
C
wind
direction
speed
KPH
gust
KPH
rain 1hr
cm
rain 24hr
cm
rain mn
cm
humidity
%
barometer
mb
20260506003041 27 89 1.6 8.0 0.00 0.00 0.00 74 1004.4
20260506001541 27 98 1.6 8.0 0.00 0.00 0.00 75 1004.3
20260506000040 27 106 1.6 6.4 0.00 0.00 0.00 74 1004.4
20260505234538 27 99 3.2 9.7 0.00 0.00 0.00 74 1004.3
20260505233038 27 95 4.8 11.3 0.00 0.00 0.00 74 1004.2
20260505231635 27 101 1.6 6.4 0.00 0.00 0.00 74 1004.1
20260505230034 28 99 3.2 6.4 0.00 0.00 0.00 73 1004.2
20260505224533 28 93 3.2 8.0 0.00 0.00 0.00 73 1004.3
20260505223032 28 96 3.2 12.9 0.00 0.00 0.00 71 1004.3
20260505221536 28 89 1.6 6.4 0.00 0.00 0.00 71 1004.3
20260505220034 29 105 1.6 4.8 0.00 0.00 0.00 70 1004.4
20260505214548 29 105 0.0 4.8 0.00 0.00 0.00 70 1004.6
20260505213132 29 110 1.6 11.3 0.00 0.00 0.00 70 1004.7
20260505211528 29 94 1.6 8.0 0.00 0.00 0.00 70 1004.8
20260505210026 29 98 3.2 9.7 0.00 0.00 0.00 70 1005.0
20260505204526 29 108 1.6 9.7 0.00 0.00 0.00 70 1005.2
20260505203030 30 110 3.2 8.0 0.00 0.00 0.00 68 1005.5
20260505201530 29 125 1.6 11.3 0.00 0.00 0.00 71 1005.7
20260505200020 28 103 1.6 6.4 0.00 0.00 0.00 72 1006.0
20260505194517 28 98 1.6 4.8 0.00 0.00 0.00 72 1006.1
20260505193015 28 110 3.2 6.4 0.00 0.00 0.00 73 1006.2
20260505191517 28 101 0.0 6.4 0.00 0.00 0.00 72 1006.2
20260505190012 27 106 1.6 4.8 0.00 0.00 0.00 74 1006.3
20260505184508 27 98 3.2 6.4 0.00 0.00 0.00 74 1006.5
20260505183012 27 97 1.6 4.8 0.00 0.00 0.00 74 1006.6
20260505181508 27 103 0.0 4.8 0.00 0.00 0.00 75 1006.7
20260505180008 27 103 1.6 4.8 0.00 0.00 0.00 75 1006.8
20260505174506 26 110 0.0 3.2 0.00 0.00 0.00 76 1006.9
20260505173001 26 93 0.0 11.3 0.00 0.00 0.00 76 1007.2
20260505171601 26 117 0.0 4.8 0.00 0.00 0.00 76 1007.2
20260505170111 26 98 1.6 6.4 0.00 0.00 0.00 76 1007.2
20260505164558 26 96 1.6 8.0 0.00 0.00 0.00 76 1007.4
20260505163059 26 116 0.0 4.8 0.00 0.00 0.00 76 1007.2
20260505161614 25 95 1.6 4.8 0.00 0.00 0.00 77 1007.2
20260505153101 24 87 1.6 4.8 0.00 0.00 0.00 74 1007.1
20260505151600 24 105 0.0 4.8 0.00 0.00 0.00 76 1007.0
20260505124544 22 112 0.0 3.2 0.00 0.00 0.00 70 1006.4
20260505123043 22 103 0.0 3.2 0.00 0.00 0.00 69 1006.5
20260505121603 22 101 0.0 3.2 0.00 0.00 0.00 68 1006.3
20260505120048 21 102 0.0 3.2 0.00 0.00 0.00 69 1006.2
20260505114547 21 103 0.0 3.2 0.00 0.00 0.00 69 1006.0
20260505113048 21 103 0.0 3.2 0.00 0.00 0.00 70 1006.2
20260505111545 21 100 0.0 4.8 0.00 0.00 0.00 70 1006.2
20260505101551 21 101 0.0 3.2 0.00 0.00 0.00 72 1006.3
20260505100040 21 99 0.0 4.8 0.00 0.00 0.00 73 1006.2
20260505094540 21 102 0.0 3.2 0.00 0.00 0.00 73 1006.4
20260505093042 21 101 0.0 0.0 0.00 0.00 0.00 73 1006.3
20260505091540 21 101 0.0 0.0 0.00 0.00 0.00 73 1006.5
20260505090048 21 101 0.0 0.0 0.00 0.00 0.00 73 1006.6
20260505084537 21 97 0.0 0.0 0.00 0.00 0.00 74 1006.6
20260505083036 21 97 0.0 0.0 0.00 0.00 0.00 74 1006.7
20260505081539 21 97 0.0 0.0 0.00 0.00 0.00 75 1006.9
20260505080030 21 97 0.0 0.0 0.00 0.00 0.00 76 1007.1
20260505074530 21 97 0.0 0.0 0.00 0.00 0.00 76 1007.2
20260505073036 21 103 0.0 0.0 0.00 0.00 0.00 77 1007.1
20260505071527 21 101 0.0 0.0 0.00 0.00 0.00 77 1007.2
20260505070026 21 103 0.0 4.8 0.00 0.00 0.00 77 1007.3
20260505064525 21 101 0.0 3.2 0.00 0.00 0.00 78 1007.5
20260505063025 21 101 3.2 9.7 0.00 0.00 0.00 78 1007.7
20260505061524 21 100 0.0 6.4 0.00 0.00 0.00 78 1007.9
20260505060031 21 102 0.0 6.4 0.00 0.00 0.00 78 1008.1
20260505054534 21 103 1.6 8.0 0.00 0.00 0.00 78 1008.0
20260505053021 21 107 0.0 4.8 0.00 0.00 0.00 78 1008.1
20260505051520 21 102 0.0 3.2 0.00 0.00 0.00 78 1008.4
20260505041519 22 101 0.0 4.8 0.00 0.00 0.00 77 1008.5
20260505040019 22 102 1.6 6.4 0.00 0.00 0.00 77 1008.4
20260505034518 22 108 3.2 8.0 0.00 0.00 0.00 76 1008.4
20260505033019 22 107 3.2 12.9 0.00 0.00 0.00 76 1008.8
20260505031517 22 99 3.2 11.3 0.00 0.00 0.00 76 1008.7
20260505030024 23 106 3.2 9.7 0.00 0.00 0.00 75 1008.6
20260505024514 23 96 0.0 8.0 0.00 0.00 0.00 75 1008.5
20260505023015 23 103 3.2 9.7 0.00 0.00 0.00 74 1008.7
20260505021509 23 111 4.8 12.9 0.00 0.00 0.00 74 1008.3
20260505020006 23 79 3.2 11.3 0.00 0.00 0.00 73 1008.3
20260505014508 23 108 3.2 9.7 0.00 0.00 0.00 73 1008.2
20260505013003 23 103 1.6 6.4 0.00 0.00 0.00 72 1008.0
20260505011504 23 101 1.6 8.0 0.00 0.00 0.00 72 1007.9
20260505010002 24 105 1.6 9.7 0.00 0.00 0.00 72 1008.0
20260505004505 24 97 3.2 11.3 0.00 0.00 0.00 71 1007.8